Location: Bidwell Hollow
(37.7387°N, 90.1707°W)
Time: 01:56:39
(UTC+00:00)

Transit 2A - Pass Details

Date: 15 May 2026
Orbit: 596 x 948 km, 66.7° (Epoch: 11 June)

Event Time Altitude Azimuth Distance (km) Brightness Sun altitude
Rises 21:58:20 0° 225° (SW) 3,596 10.1 34.7°
Reaches altitude 10° 22:01:03 10° 231° (SW) 2,639 9.6 34.2°
Maximum altitude 22:06:56 45° 303° (WNW) 1,219 8.4 33.0°
Drops below altitude 10° 22:12:30 10° 15° (NNE) 2,491 8.6 31.9°
Sets 22:15:00 0° 22° (NNE) 3,377 9.1 31.4°
